owner,sensor,date,latitude,longitude,vertical_datum,mass_concentration_of_oxygen_in_sea_water,qcFlag 
SCCF RECON,ioos:station:SCCF:13:1,2011-11-01T00:00:00Z,26.5255,-82.0032,2.328,-9999.0,1111122 
SCCF RECON,ioos:station:SCCF:13:1,2011-11-01T01:00:00Z,26.5255,-82.0032,2.36,-9999.0,1111122 
SCCF RECON,ioos:station:SCCF:13:1,2011-11-01T02:00:00Z,26.5255,-82.0032,2.37,-9999.0,1111122 
SCCF RECON,ioos:station:SCCF:13:1,2011-11-01T03:00:00Z,26.5255,-82.0032,2.35,-9999.0,1111122 
SCCF RECON,ioos:station:SCCF:13:1,2011-11-01T04:00:00Z,26.5255,-82.0032,2.32,-9999.0,1111122 
SCCF RECON,ioos:station:SCCF:13:1,2011-11-01T05:00:00Z,26.5255,-82.0032,2.31,-9999.0,1111122 
SCCF RECON,ioos:station:SCCF:13:1,2011-11-01T06:00:00Z,26.5255,-82.0032,2.32,-9999.0,1111122 
SCCF RECON,ioos:station:SCCF:13:1,2011-11-01T07:00:00Z,26.5255,-82.0032,2.36,-9999.0,1111122 
SCCF RECON,ioos:station:SCCF:13:1,2011-11-01T08:00:00Z,26.5255,-82.0032,2.4,-9999.0,1111122 
SCCF RECON,ioos:station:SCCF:13:1,2011-11-01T09:00:00Z,26.5255,-82.0032,2.44,-9999.0,1111122 
SCCF RECON,ioos:station:SCCF:13:1,2011-11-01T10:00:00Z,26.5255,-82.0032,2.46,-9999.0,1111122 
SCCF RECON,ioos:station:SCCF:13:1,2011-11-01T11:00:00Z,26.5255,-82.0032,2.43,-9999.0,1111122 
SCCF RECON,ioos:station:SCCF:13:1,2011-11-01T12:00:00Z,26.5255,-82.0032,2.36,-9999.0,1111122 
SCCF RECON,ioos:station:SCCF:13:1,2011-11-01T13:00:00Z,26.5255,-82.0032,2.27,-9999.0,1111122 
SCCF RECON,ioos:station:SCCF:13:1,2011-11-01T14:00:00Z,26.5255,-82.0032,2.21,-9999.0,1111122 
SCCF RECON,ioos:station:SCCF:13:1,2011-11-01T15:00:00Z,26.5255,-82.0032,2.15,-9999.0,1111122 
SCCF RECON,ioos:station:SCCF:13:1,2011-11-01T16:00:00Z,26.5255,-82.0032,2.09,-9999.0,1111122 
SCCF RECON,ioos:station:SCCF:13:1,2011-11-01T17:00:00Z,26.5255,-82.0032,2.04,-9999.0,1111122 
SCCF RECON,ioos:station:SCCF:13:1,2011-11-01T18:00:00Z,26.5255,-82.0032,2.0,-9999.0,1111122 
SCCF RECON,ioos:station:SCCF:13:1,2011-11-01T19:00:00Z,26.5255,-82.0032,1.99,-9999.0,1111122 
SCCF RECON,ioos:station:SCCF:13:1,2011-11-01T20:00:00Z,26.5255,-82.0032,2.027,-9999.0,1111122 
SCCF RECON,ioos:station:SCCF:13:1,2011-11-01T21:00:00Z,26.5255,-82.0032,2.098,-9999.0,1111122 
SCCF RECON,ioos:station:SCCF:13:1,2011-11-01T22:00:00Z,26.5255,-82.0032,2.16,-9999.0,1111122 
SCCF RECON,ioos:station:SCCF:13:1,2011-11-01T23:00:00Z,26.5255,-82.0032,2.23,-9999.0,1111122 
SCCF RECON,ioos:station:SCCF:13:1,2011-11-02T00:00:00Z,26.5255,-82.0032,2.29,-9999.0,1111122 
SCCF RECON,ioos:station:SCCF:13:1,2011-11-02T01:00:00Z,26.5255,-82.0032,2.33,-9999.0,1111122 
SCCF RECON,ioos:station:SCCF:13:1,2011-11-02T02:00:00Z,26.5255,-82.0032,2.34,-9999.0,1111122 
SCCF RECON,ioos:station:SCCF:13:1,2011-11-02T03:00:00Z,26.5255,-82.0032,2.32,-9999.0,1111122 
SCCF RECON,ioos:station:SCCF:13:1,2011-11-02T04:00:00Z,26.5255,-82.0032,2.28,-9999.0,1111122 
SCCF RECON,ioos:station:SCCF:13:1,2011-11-02T05:00:00Z,26.5255,-82.0032,2.24,-9999.0,1111122 
SCCF RECON,ioos:station:SCCF:13:1,2011-11-02T06:00:00Z,26.5255,-82.0032,2.21,-9999.0,1111122 
SCCF RECON,ioos:station:SCCF:13:1,2011-11-02T07:00:00Z,26.5255,-82.0032,2.2,-9999.0,1111122 
SCCF RECON,ioos:station:SCCF:13:1,2011-11-02T08:00:00Z,26.5255,-82.0032,2.22,-9999.0,1111122 
SCCF RECON,ioos:station:SCCF:13:1,2011-11-02T09:00:00Z,26.5255,-82.0032,2.26,-9999.0,1111122 
SCCF RECON,ioos:station:SCCF:13:1,2011-11-02T10:00:00Z,26.5255,-82.0032,2.31,-9999.0,1111122 
SCCF RECON,ioos:station:SCCF:13:1,2011-11-02T11:00:00Z,26.5255,-82.0032,2.35,-9999.0,1111122 
SCCF RECON,ioos:station:SCCF:13:1,2011-11-02T12:00:00Z,26.5255,-82.0032,2.37,-9999.0,1111122 
SCCF RECON,ioos:station:SCCF:13:1,2011-11-02T13:00:00Z,26.5255,-82.0032,2.37,-9999.0,1111122 
SCCF RECON,ioos:station:SCCF:13:1,2011-11-02T14:00:00Z,26.5255,-82.0032,2.33,-9999.0,1111122 
SCCF RECON,ioos:station:SCCF:13:1,2011-11-02T15:00:00Z,26.5255,-82.0032,2.26,-9999.0,1111122 
SCCF RECON,ioos:station:SCCF:13:1,2011-11-02T16:00:00Z,26.5255,-82.0032,2.2,-9999.0,1111122 
SCCF RECON,ioos:station:SCCF:13:1,2011-11-02T17:00:00Z,26.5255,-82.0032,2.15,-9999.0,1111122 
SCCF RECON,ioos:station:SCCF:13:1,2011-11-02T18:00:00Z,26.5255,-82.0032,2.1,-9999.0,1111122 
SCCF RECON,ioos:station:SCCF:13:1,2011-11-02T19:00:00Z,26.5255,-82.0032,2.07,-9999.0,1111122 
SCCF RECON,ioos:station:SCCF:13:1,2011-11-02T20:00:00Z,26.5255,-82.0032,2.07,-9999.0,1111122 
SCCF RECON,ioos:station:SCCF:13:1,2011-11-02T21:00:00Z,26.5255,-82.0032,2.11,-9999.0,1111122 
SCCF RECON,ioos:station:SCCF:13:1,2011-11-02T22:00:00Z,26.5255,-82.0032,2.15,-9999.0,1111122 
SCCF RECON,ioos:station:SCCF:13:1,2011-11-02T23:00:00Z,26.5255,-82.0032,2.21,-9999.0,1111122 
SCCF RECON,ioos:station:SCCF:13:1,2011-11-03T00:00:00Z,26.5255,-82.0032,2.27,-9999.0,1111122 
SCCF RECON,ioos:station:SCCF:13:1,2011-11-03T01:00:00Z,26.5255,-82.0032,2.32,-9999.0,1111122 
SCCF RECON,ioos:station:SCCF:13:1,2011-11-03T02:00:00Z,26.5255,-82.0032,2.349,-9999.0,1111122 
SCCF RECON,ioos:station:SCCF:13:1,2011-11-03T03:00:00Z,26.5255,-82.0032,2.367,-9999.0,1111122 
SCCF RECON,ioos:station:SCCF:13:1,2011-11-03T04:00:00Z,26.5255,-82.0032,2.38,-9999.0,1111122 
SCCF RECON,ioos:station:SCCF:13:1,2011-11-03T05:00:00Z,26.5255,-82.0032,2.37,-9999.0,1111122 
SCCF RECON,ioos:station:SCCF:13:1,2011-11-03T06:00:00Z,26.5255,-82.0032,2.33,-9999.0,1111122 
SCCF RECON,ioos:station:SCCF:13:1,2011-11-03T07:00:00Z,26.5255,-82.0032,2.293,-9999.0,1111122 
SCCF RECON,ioos:station:SCCF:13:1,2011-11-03T08:00:00Z,26.5255,-82.0032,2.27,-9999.0,1111122 
SCCF RECON,ioos:station:SCCF:13:1,2011-11-03T09:00:00Z,26.5255,-82.0032,2.29,-9999.0,1111122 
SCCF RECON,ioos:station:SCCF:13:1,2011-11-03T10:00:00Z,26.5255,-82.0032,2.35,-9999.0,1111122 
SCCF RECON,ioos:station:SCCF:13:1,2011-11-03T11:00:00Z,26.5255,-82.0032,2.405,-9999.0,1111122 
SCCF RECON,ioos:station:SCCF:13:1,2011-11-03T12:00:00Z,26.5255,-82.0032,2.45,-9999.0,1111122 
SCCF RECON,ioos:station:SCCF:13:1,2011-11-03T13:00:00Z,26.5255,-82.0032,2.472,-9999.0,1111122 
SCCF RECON,ioos:station:SCCF:13:1,2011-11-03T14:00:00Z,26.5255,-82.0032,2.49,-9999.0,1111122 
SCCF RECON,ioos:station:SCCF:13:1,2011-11-03T15:00:00Z,26.5255,-82.0032,2.48,-9999.0,1111122 
SCCF RECON,ioos:station:SCCF:13:1,2011-11-03T16:00:00Z,26.5255,-82.0032,2.44,-9999.0,1111122 
SCCF RECON,ioos:station:SCCF:13:1,2011-11-03T17:00:00Z,26.5255,-82.0032,2.39,-9999.0,1111122 
SCCF RECON,ioos:station:SCCF:13:1,2011-11-03T18:00:00Z,26.5255,-82.0032,2.33,-9999.0,1111122 
SCCF RECON,ioos:station:SCCF:13:1,2011-11-03T19:00:00Z,26.5255,-82.0032,2.22,-9999.0,1111122 
SCCF RECON,ioos:station:SCCF:13:1,2011-11-03T20:00:00Z,26.5255,-82.0032,2.17,-9999.0,1111122 
SCCF RECON,ioos:station:SCCF:13:1,2011-11-03T21:00:00Z,26.5255,-82.0032,2.163,-9999.0,1111122 
SCCF RECON,ioos:station:SCCF:13:1,2011-11-03T22:00:00Z,26.5255,-82.0032,2.201,-9999.0,1111122 
SCCF RECON,ioos:station:SCCF:13:1,2011-11-03T23:00:00Z,26.5255,-82.0032,2.248,-9999.0,1111122 
SCCF RECON,ioos:station:SCCF:13:1,2011-11-04T00:00:00Z,26.5255,-82.0032,2.3,-9999.0,1111122 
SCCF RECON,ioos:station:SCCF:13:1,2011-11-04T01:00:00Z,26.5255,-82.0032,2.35,-9999.0,1111122 
SCCF RECON,ioos:station:SCCF:13:1,2011-11-04T02:00:00Z,26.5255,-82.0032,2.4,-9999.0,1111122 
SCCF RECON,ioos:station:SCCF:13:1,2011-11-04T03:00:00Z,26.5255,-82.0032,2.44,-9999.0,1111122 
SCCF RECON,ioos:station:SCCF:13:1,2011-11-04T04:00:00Z,26.5255,-82.0032,2.47,-9999.0,1111122 
SCCF RECON,ioos:station:SCCF:13:1,2011-11-04T05:00:00Z,26.5255,-82.0032,2.47,-9999.0,1111122 
SCCF RECON,ioos:station:SCCF:13:1,2011-11-04T06:00:00Z,26.5255,-82.0032,2.43,-9999.0,1111122 
SCCF RECON,ioos:station:SCCF:13:1,2011-11-04T07:00:00Z,26.5255,-82.0032,2.37,-9999.0,1111122 
SCCF RECON,ioos:station:SCCF:13:1,2011-11-04T08:00:00Z,26.5255,-82.0032,2.32,-9999.0,1111122 
SCCF RECON,ioos:station:SCCF:13:1,2011-11-04T09:00:00Z,26.5255,-82.0032,2.3,-9999.0,1111122 
SCCF RECON,ioos:station:SCCF:13:1,2011-11-04T10:00:00Z,26.5255,-82.0032,2.31,-9999.0,1111122 
SCCF RECON,ioos:station:SCCF:13:1,2011-11-04T11:00:00Z,26.5255,-82.0032,2.34,-9999.0,1111122 
SCCF RECON,ioos:station:SCCF:13:1,2011-11-04T12:00:00Z,26.5255,-82.0032,2.388,-9999.0,1111122 
SCCF RECON,ioos:station:SCCF:13:1,2011-11-04T13:00:00Z,26.5255,-82.0032,2.43,-9999.0,1111122 
SCCF RECON,ioos:station:SCCF:13:1,2011-11-04T14:00:00Z,26.5255,-82.0032,2.48,-9999.0,1111122 
SCCF RECON,ioos:station:SCCF:13:1,2011-11-04T15:00:00Z,26.5255,-82.0032,2.52,-9999.0,1111122 
SCCF RECON,ioos:station:SCCF:13:1,2011-11-04T16:00:00Z,26.5255,-82.0032,2.54,-9999.0,1111122 
SCCF RECON,ioos:station:SCCF:13:1,2011-11-04T17:00:00Z,26.5255,-82.0032,2.52,-9999.0,1111122 
SCCF RECON,ioos:station:SCCF:13:1,2011-11-04T18:00:00Z,26.5255,-82.0032,2.455,-9999.0,1111122 
SCCF RECON,ioos:station:SCCF:13:1,2011-11-04T19:00:00Z,26.5255,-82.0032,2.39,-9999.0,1111122 
SCCF RECON,ioos:station:SCCF:13:1,2011-11-04T20:00:00Z,26.5255,-82.0032,2.33,-9999.0,1111122 
SCCF RECON,ioos:station:SCCF:13:1,2011-11-04T21:00:00Z,26.5255,-82.0032,2.28,-9999.0,1111122 
SCCF RECON,ioos:station:SCCF:13:1,2011-11-04T22:00:00Z,26.5255,-82.0032,2.24,-9999.0,1111122 
SCCF RECON,ioos:station:SCCF:13:1,2011-11-04T23:00:00Z,26.5255,-82.0032,2.23,-9999.0,1111122 
SCCF RECON,ioos:station:SCCF:13:1,2011-11-05T00:00:00Z,26.5255,-82.0032,2.255,-9999.0,1111122 
SCCF RECON,ioos:station:SCCF:13:1,2011-11-05T01:00:00Z,26.5255,-82.0032,2.3,-9999.0,1111122 
SCCF RECON,ioos:station:SCCF:13:1,2011-11-05T02:00:00Z,26.5255,-82.0032,2.35,-9999.0,1111122 
SCCF RECON,ioos:station:SCCF:13:1,2011-11-05T03:00:00Z,26.5255,-82.0032,2.38,-9999.0,1111122 
SCCF RECON,ioos:station:SCCF:13:1,2011-11-05T04:00:00Z,26.5255,-82.0032,2.4,-9999.0,1111122 
SCCF RECON,ioos:station:SCCF:13:1,2011-11-05T05:00:00Z,26.5255,-82.0032,2.409,-9999.0,1111122 
SCCF RECON,ioos:station:SCCF:13:1,2011-11-05T06:00:00Z,26.5255,-82.0032,2.33,-9999.0,1111122 
SCCF RECON,ioos:station:SCCF:13:1,2011-11-05T07:00:00Z,26.5255,-82.0032,2.26,-9999.0,1111122 
SCCF RECON,ioos:station:SCCF:13:1,2011-11-05T08:00:00Z,26.5255,-82.0032,2.2,-9999.0,1111122 
SCCF RECON,ioos:station:SCCF:13:1,2011-11-05T09:00:00Z,26.5255,-82.0032,2.15,-9999.0,1111122 
SCCF RECON,ioos:station:SCCF:13:1,2011-11-05T10:00:00Z,26.5255,-82.0032,2.104,-9999.0,1111122 
SCCF RECON,ioos:station:SCCF:13:1,2011-11-05T11:00:00Z,26.5255,-82.0032,2.1,-9999.0,1111122 
SCCF RECON,ioos:station:SCCF:13:1,2011-11-05T12:00:00Z,26.5255,-82.0032,2.14,-9999.0,1111122 
SCCF RECON,ioos:station:SCCF:13:1,2011-11-05T13:00:00Z,26.5255,-82.0032,2.187,-9999.0,1111122 
SCCF RECON,ioos:station:SCCF:13:1,2011-11-05T14:00:00Z,26.5255,-82.0032,2.251,-9999.0,1111122 
SCCF RECON,ioos:station:SCCF:13:1,2011-11-05T15:00:00Z,26.5255,-82.0032,2.279,-9999.0,1111122 
SCCF RECON,ioos:station:SCCF:13:1,2011-11-05T16:00:00Z,26.5255,-82.0032,2.3,-9999.0,1111122 
SCCF RECON,ioos:station:SCCF:13:1,2011-11-05T17:00:00Z,26.5255,-82.0032,2.31,-9999.0,1111122 
SCCF RECON,ioos:station:SCCF:13:1,2011-11-05T18:00:00Z,26.5255,-82.0032,2.31,-9999.0,1111122 
SCCF RECON,ioos:station:SCCF:13:1,2011-11-05T19:00:00Z,26.5255,-82.0032,2.3,-9999.0,1111122 
SCCF RECON,ioos:station:SCCF:13:1,2011-11-05T20:00:00Z,26.5255,-82.0032,2.28,-9999.0,1111122 
SCCF RECON,ioos:station:SCCF:13:1,2011-11-05T21:00:00Z,26.5255,-82.0032,2.25,-9999.0,1111122 
SCCF RECON,ioos:station:SCCF:13:1,2011-11-05T22:00:00Z,26.5255,-82.0032,2.219,-9999.0,1111122 
SCCF RECON,ioos:station:SCCF:13:1,2011-11-05T23:00:00Z,26.5255,-82.0032,2.23,-9999.0,1111122 
SCCF RECON,ioos:station:SCCF:13:1,2011-11-06T00:00:00Z,26.5255,-82.0032,2.261,-9999.0,1111122 
SCCF RECON,ioos:station:SCCF:13:1,2011-11-06T01:00:00Z,26.5255,-82.0032,2.32,-9999.0,1111122 
SCCF RECON,ioos:station:SCCF:13:1,2011-11-06T02:00:00Z,26.5255,-82.0032,2.364,-9999.0,1111122 
SCCF RECON,ioos:station:SCCF:13:1,2011-11-06T03:00:00Z,26.5255,-82.0032,2.4,-9999.0,1111122 
SCCF RECON,ioos:station:SCCF:13:1,2011-11-06T04:00:00Z,26.5255,-82.0032,2.431,-9999.0,1111122 
SCCF RECON,ioos:station:SCCF:13:1,2011-11-06T05:00:00Z,26.5255,-82.0032,2.45,-9999.0,1111122 
SCCF RECON,ioos:station:SCCF:13:1,2011-11-06T06:00:00Z,26.5255,-82.0032,2.44,-9999.0,1111122 
SCCF RECON,ioos:station:SCCF:13:1,2011-11-06T07:00:00Z,26.5255,-82.0032,2.39,-9999.0,1111122 
SCCF RECON,ioos:station:SCCF:13:1,2011-11-06T08:00:00Z,26.5255,-82.0032,2.29,-9999.0,1111122 
SCCF RECON,ioos:station:SCCF:13:1,2011-11-06T09:00:00Z,26.5255,-82.0032,2.22,-9999.0,1111122 
SCCF RECON,ioos:station:SCCF:13:1,2011-11-06T10:00:00Z,26.5255,-82.0032,2.179,-9999.0,1111122 
SCCF RECON,ioos:station:SCCF:13:1,2011-11-06T11:00:00Z,26.5255,-82.0032,2.15,-9999.0,1111122 
SCCF RECON,ioos:station:SCCF:13:1,2011-11-06T12:00:00Z,26.5255,-82.0032,2.18,-9999.0,1111122 
SCCF RECON,ioos:station:SCCF:13:1,2011-11-06T13:00:00Z,26.5255,-82.0032,2.25,-9999.0,1111122 
SCCF RECON,ioos:station:SCCF:13:1,2011-11-06T14:00:00Z,26.5255,-82.0032,2.31,-9999.0,1111122 
SCCF RECON,ioos:station:SCCF:13:1,2011-11-06T15:00:00Z,26.5255,-82.0032,2.36,-9999.0,1111122 
SCCF RECON,ioos:station:SCCF:13:1,2011-11-06T16:00:00Z,26.5255,-82.0032,2.41,-9999.0,1111122 
SCCF RECON,ioos:station:SCCF:13:1,2011-11-06T17:00:00Z,26.5255,-82.0032,2.46,-9999.0,1111122 
SCCF RECON,ioos:station:SCCF:13:1,2011-11-06T18:00:00Z,26.5255,-82.0032,2.46,-9999.0,1111122 
SCCF RECON,ioos:station:SCCF:13:1,2011-11-06T19:00:00Z,26.5255,-82.0032,2.43,-9999.0,1111122 
SCCF RECON,ioos:station:SCCF:13:1,2011-11-06T20:00:00Z,26.5255,-82.0032,2.388,-9999.0,1111122 
SCCF RECON,ioos:station:SCCF:13:1,2011-11-06T21:00:00Z,26.5255,-82.0032,2.34,-9999.0,1111122 
SCCF RECON,ioos:station:SCCF:13:1,2011-11-06T22:00:00Z,26.5255,-82.0032,2.31,-9999.0,1111122 
SCCF RECON,ioos:station:SCCF:13:1,2011-11-06T23:00:00Z,26.5255,-82.0032,2.3,-9999.0,1111122 
SCCF RECON,ioos:station:SCCF:13:1,2011-11-07T00:00:00Z,26.5255,-82.0032,2.307,-9999.0,1111122 
SCCF RECON,ioos:station:SCCF:13:1,2011-11-07T01:00:00Z,26.5255,-82.0032,2.35,-9999.0,1111122 
SCCF RECON,ioos:station:SCCF:13:1,2011-11-07T02:00:00Z,26.5255,-82.0032,2.39,-9999.0,1111122 
SCCF RECON,ioos:station:SCCF:13:1,2011-11-07T03:00:00Z,26.5255,-82.0032,2.43,-9999.0,1111122 
SCCF RECON,ioos:station:SCCF:13:1,2011-11-07T04:00:00Z,26.5255,-82.0032,2.461,-9999.0,1111122 
SCCF RECON,ioos:station:SCCF:13:1,2011-11-07T05:00:00Z,26.5255,-82.0032,2.48,-9999.0,1111122 
SCCF RECON,ioos:station:SCCF:13:1,2011-11-07T06:00:00Z,26.5255,-82.0032,2.48,-9999.0,1111122 
SCCF RECON,ioos:station:SCCF:13:1,2011-11-07T07:00:00Z,26.5255,-82.0032,2.44,-9999.0,1111122 
SCCF RECON,ioos:station:SCCF:13:1,2011-11-07T08:00:00Z,26.5255,-82.0032,2.35,-9999.0,1111122 
SCCF RECON,ioos:station:SCCF:13:1,2011-11-07T09:00:00Z,26.5255,-82.0032,2.27,-9999.0,1111122 
SCCF RECON,ioos:station:SCCF:13:1,2011-11-07T10:00:00Z,26.5255,-82.0032,2.21,-9999.0,1111122 
SCCF RECON,ioos:station:SCCF:13:1,2011-11-07T11:00:00Z,26.5255,-82.0032,2.16,-9999.0,1111122 
SCCF RECON,ioos:station:SCCF:13:1,2011-11-07T12:00:00Z,26.5255,-82.0032,2.14,-9999.0,1111122 
SCCF RECON,ioos:station:SCCF:13:1,2011-11-07T13:00:00Z,26.5255,-82.0032,2.17,-9999.0,1111122 
SCCF RECON,ioos:station:SCCF:13:1,2011-11-07T14:00:00Z,26.5255,-82.0032,2.23,-9999.0,1111122 
SCCF RECON,ioos:station:SCCF:13:1,2011-11-07T15:00:00Z,26.5255,-82.0032,2.298,-9999.0,1111122 
SCCF RECON,ioos:station:SCCF:13:1,2011-11-07T16:00:00Z,26.5255,-82.0032,2.36,-9999.0,1111122 
SCCF RECON,ioos:station:SCCF:13:1,2011-11-07T17:00:00Z,26.5255,-82.0032,2.42,-9999.0,1111122 
SCCF RECON,ioos:station:SCCF:13:1,2011-11-07T18:00:00Z,26.5255,-82.0032,2.45,-9999.0,1111122 
SCCF RECON,ioos:station:SCCF:13:1,2011-11-07T19:00:00Z,26.5255,-82.0032,2.452,-9999.0,1111122 
SCCF RECON,ioos:station:SCCF:13:1,2011-11-07T20:00:00Z,26.5255,-82.0032,2.433,-9999.0,1111122 
SCCF RECON,ioos:station:SCCF:13:1,2011-11-07T21:00:00Z,26.5255,-82.0032,2.41,-9999.0,1111122 
SCCF RECON,ioos:station:SCCF:13:1,2011-11-07T22:00:00Z,26.5255,-82.0032,2.39,-9999.0,1111122 
SCCF RECON,ioos:station:SCCF:13:1,2011-11-07T23:00:00Z,26.5255,-82.0032,2.38,-9999.0,1111122 
SCCF RECON,ioos:station:SCCF:13:1,2011-11-08T00:00:00Z,26.5255,-82.0032,2.41,-9999.0,1111122 
SCCF RECON,ioos:station:SCCF:13:1,2011-11-08T01:00:00Z,26.5255,-82.0032,2.45,-9999.0,1111122 
SCCF RECON,ioos:station:SCCF:13:1,2011-11-08T02:00:00Z,26.5255,-82.0032,2.48,-9999.0,1111122 
SCCF RECON,ioos:station:SCCF:13:1,2011-11-08T03:00:00Z,26.5255,-82.0032,2.53,-9999.0,1111122 
SCCF RECON,ioos:station:SCCF:13:1,2011-11-08T04:00:00Z,26.5255,-82.0032,2.573,-9999.0,1111122 
SCCF RECON,ioos:station:SCCF:13:1,2011-11-08T05:00:00Z,26.5255,-82.0032,2.6,-9999.0,1111122 
SCCF RECON,ioos:station:SCCF:13:1,2011-11-08T06:00:00Z,26.5255,-82.0032,2.602,-9999.0,1111122 
SCCF RECON,ioos:station:SCCF:13:1,2011-11-08T07:00:00Z,26.5255,-82.0032,2.57,-9999.0,1111122 
SCCF RECON,ioos:station:SCCF:13:1,2011-11-08T08:00:00Z,26.5255,-82.0032,2.5,-9999.0,1111122 
SCCF RECON,ioos:station:SCCF:13:1,2011-11-08T09:00:00Z,26.5255,-82.0032,2.41,-9999.0,1111122 
SCCF RECON,ioos:station:SCCF:13:1,2011-11-08T10:00:00Z,26.5255,-82.0032,2.34,-9999.0,1111122 
SCCF RECON,ioos:station:SCCF:13:1,2011-11-08T11:00:00Z,26.5255,-82.0032,2.28,-9999.0,1111122 
SCCF RECON,ioos:station:SCCF:13:1,2011-11-08T12:00:00Z,26.5255,-82.0032,2.24,-9999.0,1111122 
SCCF RECON,ioos:station:SCCF:13:1,2011-11-08T13:00:00Z,26.5255,-82.0032,2.23,-9999.0,1111122 
SCCF RECON,ioos:station:SCCF:13:1,2011-11-08T14:00:00Z,26.5255,-82.0032,2.26,-9999.0,1111122 
SCCF RECON,ioos:station:SCCF:13:1,2011-11-08T15:00:00Z,26.5255,-82.0032,2.32,-9999.0,1111122 
SCCF RECON,ioos:station:SCCF:13:1,2011-11-08T16:00:00Z,26.5255,-82.0032,2.38,-9999.0,1111122 
SCCF RECON,ioos:station:SCCF:13:1,2011-11-08T17:00:00Z,26.5255,-82.0032,2.45,-9999.0,1111122 
SCCF RECON,ioos:station:SCCF:13:1,2011-11-08T18:00:00Z,26.5255,-82.0032,2.497,-9999.0,1111122 
SCCF RECON,ioos:station:SCCF:13:1,2011-11-08T19:00:00Z,26.5255,-82.0032,2.53,-9999.0,1111122 
SCCF RECON,ioos:station:SCCF:13:1,2011-11-08T20:00:00Z,26.5255,-82.0032,2.547,-9999.0,1111122 
SCCF RECON,ioos:station:SCCF:13:1,2011-11-08T21:00:00Z,26.5255,-82.0032,2.524,-9999.0,1111122 
SCCF RECON,ioos:station:SCCF:13:1,2011-11-08T22:00:00Z,26.5255,-82.0032,2.49,-9999.0,1111122 
SCCF RECON,ioos:station:SCCF:13:1,2011-11-08T23:00:00Z,26.5255,-82.0032,2.47,-9999.0,1111122 
SCCF RECON,ioos:station:SCCF:13:1,2011-11-09T00:00:00Z,26.5255,-82.0032,2.46,-9999.0,1111122 
SCCF RECON,ioos:station:SCCF:13:1,2011-11-09T01:00:00Z,26.5255,-82.0032,2.461,-9999.0,1111122 
SCCF RECON,ioos:station:SCCF:13:1,2011-11-09T02:00:00Z,26.5255,-82.0032,2.492,-9999.0,1111122 
SCCF RECON,ioos:station:SCCF:13:1,2011-11-09T03:00:00Z,26.5255,-82.0032,2.532,-9999.0,1111122 
SCCF RECON,ioos:station:SCCF:13:1,2011-11-09T04:00:00Z,26.5255,-82.0032,2.567,-9999.0,1111122 
SCCF RECON,ioos:station:SCCF:13:1,2011-11-09T05:00:00Z,26.5255,-82.0032,2.602,-9999.0,1111122 
SCCF RECON,ioos:station:SCCF:13:1,2011-11-09T06:00:00Z,26.5255,-82.0032,2.63,-9999.0,1111122 
SCCF RECON,ioos:station:SCCF:13:1,2011-11-09T07:00:00Z,26.5255,-82.0032,2.625,-9999.0,1111122 
SCCF RECON,ioos:station:SCCF:13:1,2011-11-09T08:00:00Z,26.5255,-82.0032,2.57,-9999.0,1111122 
SCCF RECON,ioos:station:SCCF:13:1,2011-11-09T09:00:00Z,26.5255,-82.0032,2.5,-9999.0,1111122 
SCCF RECON,ioos:station:SCCF:13:1,2011-11-09T10:00:00Z,26.5255,-82.0032,2.43,-9999.0,1111122 
SCCF RECON,ioos:station:SCCF:13:1,2011-11-09T11:00:00Z,26.5255,-82.0032,2.37,-9999.0,1111122 
SCCF RECON,ioos:station:SCCF:13:1,2011-11-09T12:00:00Z,26.5255,-82.0032,2.32,-9999.0,1111122 
SCCF RECON,ioos:station:SCCF:13:1,2011-11-09T13:00:00Z,26.5255,-82.0032,2.289,-9999.0,1111122 
SCCF RECON,ioos:station:SCCF:13:1,2011-11-09T14:00:00Z,26.5255,-82.0032,2.296,-9999.0,1111122 
SCCF RECON,ioos:station:SCCF:13:1,2011-11-09T15:00:00Z,26.5255,-82.0032,2.33,-9999.0,1111122 
SCCF RECON,ioos:station:SCCF:13:1,2011-11-09T16:00:00Z,26.5255,-82.0032,2.388,-9999.0,1111122 
SCCF RECON,ioos:station:SCCF:13:1,2011-11-09T17:00:00Z,26.5255,-82.0032,2.44,-9999.0,1111122 
SCCF RECON,ioos:station:SCCF:13:1,2011-11-09T18:00:00Z,26.5255,-82.0032,2.49,-9999.0,1111122 
SCCF RECON,ioos:station:SCCF:13:1,2011-11-09T19:00:00Z,26.5255,-82.0032,2.53,-9999.0,1111122 
SCCF RECON,ioos:station:SCCF:13:1,2011-11-09T20:00:00Z,26.5255,-82.0032,2.543,-9999.0,1111122 
SCCF RECON,ioos:station:SCCF:13:1,2011-11-09T21:00:00Z,26.5255,-82.0032,2.539,-9999.0,1111122 
SCCF RECON,ioos:station:SCCF:13:1,2011-11-09T22:00:00Z,26.5255,-82.0032,2.536,-9999.0,1111122 
SCCF RECON,ioos:station:SCCF:13:1,2011-11-09T23:00:00Z,26.5255,-82.0032,2.508,-9999.0,1111122 
SCCF RECON,ioos:station:SCCF:13:1,2011-11-10T00:00:00Z,26.5255,-82.0032,2.48,-9999.0,1111122 
SCCF RECON,ioos:station:SCCF:13:1,2011-11-10T01:00:00Z,26.5255,-82.0032,2.47,-9999.0,1111122 
SCCF RECON,ioos:station:SCCF:13:1,2011-11-10T02:00:00Z,26.5255,-82.0032,2.49,-9999.0,1111122 
SCCF RECON,ioos:station:SCCF:13:1,2011-11-10T03:00:00Z,26.5255,-82.0032,2.52,-9999.0,1111122 
SCCF RECON,ioos:station:SCCF:13:1,2011-11-10T04:00:00Z,26.5255,-82.0032,2.57,-9999.0,1111122 
SCCF RECON,ioos:station:SCCF:13:1,2011-11-10T05:00:00Z,26.5255,-82.0032,2.62,-9999.0,1111122 
SCCF RECON,ioos:station:SCCF:13:1,2011-11-10T06:00:00Z,26.5255,-82.0032,2.65,-9999.0,1111122 
SCCF RECON,ioos:station:SCCF:13:1,2011-11-10T07:00:00Z,26.5255,-82.0032,2.66,-9999.0,1111122 
SCCF RECON,ioos:station:SCCF:13:1,2011-11-10T08:00:00Z,26.5255,-82.0032,2.63,-9999.0,1111122 
SCCF RECON,ioos:station:SCCF:13:1,2011-11-10T09:00:00Z,26.5255,-82.0032,2.57,-9999.0,1111122 
SCCF RECON,ioos:station:SCCF:13:1,2011-11-10T10:00:00Z,26.5255,-82.0032,2.51,-9999.0,1111122 
SCCF RECON,ioos:station:SCCF:13:1,2011-11-10T11:00:00Z,26.5255,-82.0032,2.44,-9999.0,1111122 
SCCF RECON,ioos:station:SCCF:13:1,2011-11-10T12:00:00Z,26.5255,-82.0032,2.39,-9999.0,1111122 
SCCF RECON,ioos:station:SCCF:13:1,2011-11-10T13:00:00Z,26.5255,-82.0032,2.34,-9999.0,1111122 
SCCF RECON,ioos:station:SCCF:13:1,2011-11-10T14:00:00Z,26.5255,-82.0032,2.31,-9999.0,1111122 
SCCF RECON,ioos:station:SCCF:13:1,2011-11-10T15:00:00Z,26.5255,-82.0032,2.32,-9999.0,1111122 
SCCF RECON,ioos:station:SCCF:13:1,2011-11-10T16:00:00Z,26.5255,-82.0032,2.34,-9999.0,1111122 
SCCF RECON,ioos:station:SCCF:13:1,2011-11-10T17:00:00Z,26.5255,-82.0032,2.38,-9999.0,1111122 
SCCF RECON,ioos:station:SCCF:13:1,2011-11-10T18:00:00Z,26.5255,-82.0032,2.43,-9999.0,1111122 
SCCF RECON,ioos:station:SCCF:13:1,2011-11-10T19:00:00Z,26.5255,-82.0032,2.47,-9999.0,1111122 
SCCF RECON,ioos:station:SCCF:13:1,2011-11-10T20:00:00Z,26.5255,-82.0032,2.502,-9999.0,1111122 
SCCF RECON,ioos:station:SCCF:13:1,2011-11-10T21:00:00Z,26.5255,-82.0032,2.516,-9999.0,1111122 
SCCF RECON,ioos:station:SCCF:13:1,2011-11-10T22:00:00Z,26.5255,-82.0032,2.509,-9999.0,1111122 
SCCF RECON,ioos:station:SCCF:13:1,2011-11-10T23:00:00Z,26.5255,-82.0032,2.5,-9999.0,1111122 
SCCF RECON,ioos:station:SCCF:13:1,2011-11-11T00:00:00Z,26.5255,-82.0032,2.47,-9999.0,1111122 
SCCF RECON,ioos:station:SCCF:13:1,2011-11-11T01:00:00Z,26.5255,-82.0032,2.46,-9999.0,1111122 
SCCF RECON,ioos:station:SCCF:13:1,2011-11-11T02:00:00Z,26.5255,-82.0032,2.47,-9999.0,1111122 
SCCF RECON,ioos:station:SCCF:13:1,2011-11-11T03:00:00Z,26.5255,-82.0032,2.497,-9999.0,1111122 
SCCF RECON,ioos:station:SCCF:13:1,2011-11-11T04:00:00Z,26.5255,-82.0032,2.53,-9999.0,1111122 
SCCF RECON,ioos:station:SCCF:13:1,2011-11-11T05:00:00Z,26.5255,-82.0032,2.57,-9999.0,1111122 
SCCF RECON,ioos:station:SCCF:13:1,2011-11-11T06:00:00Z,26.5255,-82.0032,2.6,-9999.0,1111122 
SCCF RECON,ioos:station:SCCF:13:1,2011-11-11T07:00:00Z,26.5255,-82.0032,2.62,-9999.0,1111122 
SCCF RECON,ioos:station:SCCF:13:1,2011-11-11T08:00:00Z,26.5255,-82.0032,2.61,-9999.0,1111122 
SCCF RECON,ioos:station:SCCF:13:1,2011-11-11T09:00:00Z,26.5255,-82.0032,2.58,-9999.0,1111122 
SCCF RECON,ioos:station:SCCF:13:1,2011-11-11T10:00:00Z,26.5255,-82.0032,2.529,-9999.0,1111122 
SCCF RECON,ioos:station:SCCF:13:1,2011-11-11T11:00:00Z,26.5255,-82.0032,2.472,-9999.0,1111122 
SCCF RECON,ioos:station:SCCF:13:1,2011-11-11T12:00:00Z,26.5255,-82.0032,2.41,-9999.0,1111122 